TimePST,TemperatureF,Dew PointF,Humidity,Sea Level PressureIn,VisibilityMPH,Wind Direction,Wind SpeedMPH,Gust SpeedMPH,PrecipitationIn,Events,Conditions,WindDirDegrees,DateUTC
12:53 AM,18.0,12.9,81,29.86,10.0,Calm,Calm,-,N/A,,Clear,0,2013-02-08 08:53:00
1:53 AM,14.0,9.0,80,29.86,7.0,Calm,Calm,-,N/A,,Clear,0,2013-02-08 09:53:00
2:53 AM,14.0,8.1,77,29.85,10.0,Calm,Calm,-,N/A,,Clear,0,2013-02-08 10:53:00
3:53 AM,12.9,7.0,77,29.85,10.0,Calm,Calm,-,N/A,,Clear,0,2013-02-08 11:53:00
4:53 AM,10.9,6.1,81,29.86,10.0,Calm,Calm,-,N/A,,Scattered Clouds,0,2013-02-08 12:53:00
5:53 AM,12.9,8.1,81,29.86,10.0,South,4.6,-,N/A,,Overcast,180,2013-02-08 13:53:00
6:53 AM,12.0,6.1,77,29.88,10.0,South,3.5,-,N/A,,Clear,190,2013-02-08 14:53:00
7:53 AM,12.9,7.0,77,29.90,10.0,South,5.8,-,N/A,,Clear,190,2013-02-08 15:53:00
8:53 AM,16.0,10.0,77,29.90,10.0,South,4.6,-,N/A,,Partly Cloudy,180,2013-02-08 16:53:00
9:53 AM,23.0,14.0,68,29.86,10.0,SSE,3.5,-,N/A,,Scattered Clouds,160,2013-02-08 17:53:00
10:53 AM,27.0,12.0,53,29.84,8.0,Variable,3.5,-,0.00,,Overcast,0,2013-02-08 18:53:00
11:10 AM,26.6,14.0,59,29.79,3.0,ENE,3.5,-,0.00,Snow,Light Snow,60,2013-02-08 19:10:00
11:39 AM,26.6,12.2,55,29.79,8.0,Calm,Calm,-,0.00,Snow,Light Snow,0,2013-02-08 19:39:00
11:53 AM,28.0,12.0,51,29.83,10.0,NNE,5.8,-,0.00,,Overcast,30,2013-02-08 19:53:00
12:53 PM,28.0,12.0,51,29.84,8.0,NNE,8.1,-,0.00,Snow,Light Snow,30,2013-02-08 20:53:00
1:10 PM,26.6,14.0,59,29.78,2.5,ENE,5.8,-,0.00,Snow,Light Snow,60,2013-02-08 21:10:00
1:21 PM,26.6,14.0,59,29.78,5.0,NE,4.6,-,0.00,Snow,Light Snow,50,2013-02-08 21:21:00
1:53 PM,27.0,15.1,61,29.86,2.5,NNE,6.9,-,0.00,Snow,Light Snow,30,2013-02-08 21:53:00
2:02 PM,26.6,15.8,64,29.78,1.0,NNE,6.9,-,0.01,Snow,Light Snow,30,2013-02-08 22:02:00
2:10 PM,26.6,17.6,69,29.78,0.5,Calm,Calm,-,0.01,Snow,Snow,0,2013-02-08 22:10:00
2:21 PM,26.6,17.6,69,29.78,1.5,Calm,Calm,-,0.01,Snow,Light Snow,0,2013-02-08 22:21:00
2:27 PM,26.6,19.4,74,29.78,3.0,Calm,Calm,-,0.01,Snow,Light Snow,0,2013-02-08 22:27:00
2:35 PM,26.6,19.4,74,29.78,9.0,SE,3.5,-,0.01,,Overcast,130,2013-02-08 22:35:00
2:53 PM,28.9,16.0,58,29.86,10.0,Calm,Calm,-,0.01,,Overcast,0,2013-02-08 22:53:00
3:53 PM,28.9,16.0,58,29.87,7.0,North,8.1,-,0.00,Snow,Light Snow,10,2013-02-08 23:53:00
4:53 PM,28.0,10.9,49,29.88,10.0,NNE,3.5,-,0.00,,Mostly Cloudy,20,2013-02-09 00:53:00
5:53 PM,27.0,10.0,49,29.90,10.0,NE,5.8,-,N/A,,Overcast,40,2013-02-09 01:53:00
6:53 PM,26.1,12.0,55,29.93,10.0,NE,8.1,-,N/A,,Overcast,40,2013-02-09 02:53:00
7:53 PM,24.1,12.0,60,29.94,10.0,Calm,Calm,-,N/A,,Mostly Cloudy,0,2013-02-09 03:53:00
8:53 PM,19.9,10.0,65,29.95,10.0,Calm,Calm,-,N/A,,Clear,0,2013-02-09 04:53:00
9:53 PM,21.9,10.0,60,29.92,10.0,Variable,3.5,-,N/A,,Clear,0,2013-02-09 05:53:00
10:53 PM,19.9,9.0,62,29.91,10.0,Calm,Calm,-,N/A,,Partly Cloudy,0,2013-02-09 06:53:00
11:53 PM,19.0,10.0,68,29.93,10.0,Calm,Calm,-,N/A,,Clear,0,2013-02-09 07:53:00